Regional Weather Roundup
Issued by NWS

Home | Current Version | Previous Version | Graphics & Text | Print | Product List | Glossary On
Versions: 1 2 3 4 5 6 7 8 9 10 11 12 13 14 15 16 17 18 19 20 21 22 23 24 25 26 27 28 29 30 31 32 33 34 35 36 37 38 39 40 41 42 43 44 45 46 47 48 49 50
323
ASUS43 KMKX 080521
RWRWI

WISCONSIN REGIONAL WEATHER ROUNDUP
NATIONAL WEATHER SERVICE MILWAUKEE/SULLIVAN WI
1100 PM CST SUN FEB 07 2016

NOTE: "FAIR" INDICATES FEW OR NO CLOUDS BELOW 12,000 FEET WITH NO
SIGNIFICANT WEATHER AND/OR OBSTRUCTIONS TO VISIBILITY.

WIZ001-002-006>008-014>016-023>028-080600-
NORTHWEST WISCONSIN

CITY           SKY/WX    TMP DP  RH WIND       PRES   REMARKS
SUPERIOR ARPT  LGT SNOW  22  16  79 NW15      29.68S WCI   9
ASHLAND        FLURRIES  29  26  89 NW10G21   29.59R WCI  20
HAYWARD        LGT SNOW  23  19  85 VRB6      29.62R FOG     WCI  16
SIREN          FLURRIES  19  13  79 NW16G24   29.70S WCI   4
CUMBERLAND     LGT SNOW  19  16  86 NW14      29.65S WCI   6
RICE LAKE      LGT SNOW  21  17  83 W12G22    29.67S WCI   9
CHETEK         LGT SNOW  22  19  87 NW10G20   29.65R WCI  11
LADYSMITH      FLURRIES  26  22  84 W14       29.61S WCI  15
EAU CLAIRE     LGT SNOW  23  18  81 W13       29.66R WCI  11
MENOMONIE      LGT SNOW  23  19  83 W14G20    29.68S WCI  11
NEW RICHMOND   FLURRIES  19  13  78 NW16      29.71S WCI   4
OSCEOLA        CLOUDY    19  11  69 NW14G23   29.76S WCI   6
$$

WIZ003>005-009-010-017-018-080600-
NORTH CENTRAL WISCONSIN

CITY           SKY/WX    TMP DP  RH WIND       PRES   REMARKS
MANITOWISH WTR CLOUDY    29  27  92 NW7       29.51S WCI  22
ARBOR VITAE    LGT SNOW  32  30  92 NW8       29.51R WCI  25
WOODRUFF       LGT SNOW  32  30  92 NW8       29.51R WCI  25
RHINELANDER    LGT SNOW  31  29  92 SW6       29.51S FOG     WCI  25
EAGLE RIVER    PTCLDY    29  29  99 SW3       29.50S
LAND O LAKES   FLURRIES  32  31  98 CALM      29.50S
PHILLIPS       LGT SNOW  26  24  91 W8        29.54S WCI  18
TOMAHAWK       LGT SNOW  30  28  90 W8        29.53R WCI  22
MEDFORD        LGT SNOW  27  26  94 W12       29.55S WCI  17
MERRILL        MIX PCPN  32  31  94 W12       29.54S WCI  23
$$

WIZ029-030-035-036-043>047-080600-
CENTRAL WISCONSIN

CITY           SKY/WX    TMP DP  RH WIND       PRES   REMARKS
WAUSAU         CLOUDY    35  29  78 W7        29.53F WCI  29
MOSINEE        LGT SNOW  32  32 100 SW7       29.55F WCI  26
MARSHFIELD     CLOUDY    29  23  78 NW17      29.57R WCI  17
STEVENS POINT  MIX PCPN  32  30  94 SW6       29.57S WCI  26
WAUPACA        CLOUDY    37  28  70 SW8       29.58F WCI  31
WAUTOMA        CLOUDY    36  30  79 SW7       29.59F WCI  30
WISC RAPIDS    CLOUDY    32  27  81 NW16G22   29.60R WCI  21
CAMP DOUGLAS   CLOUDY    32  32 100 NW16      29.61R WCI  21
$$

WIZ011>013-019>022-031-037>040-048>050-080600-
NORTHEAST WISCONSIN

CITY           SKY/WX    TMP DP  RH WIND       PRES   REMARKS
ANTIGO         LGT SNOW  30  29  96 SW5       29.53F WCI  25
SHAWANO        CLOUDY    37  28  67 CALM      29.57F
OCONTO         CLOUDY    36  28  71 SW5       29.57F WCI  32
STURGEON BAY   CLOUDY    36  27  69 SW8       29.59F WCI  29
GREEN BAY      CLOUDY    35  28  75 S7        29.58F WCI  29
MANITOWOC      PTCLDY    36  27  69 W10       29.60F WCI  28
APPLETON       CLOUDY    34  27  75 S8        29.56F WCI  27
CLINTONVILLE   CLOUDY    34  28  80 SW6       29.57F WCI  29
OSHKOSH        CLOUDY    35  27  72 SW7       29.59F WCI  29
$$

WIZ032>034-041-042-053>061-080600-
SOUTHWEST WISCONSIN

CITY           SKY/WX    TMP DP  RH WIND       PRES   REMARKS
LA CROSSE      CLOUDY    29  20  69 NW16      29.67R WCI  17
SPARTA         CLOUDY    32  25  74 NW13G22   29.64R WCI  23
VIROQUA        CLOUDY    31  28  88 W18       29.62S WCI  19
BOSCOBEL       LGT SNOW  34  33  96 W10       29.66F FOG     WCI  26
PRAIRIE DU CHI CLOUDY    33  24  71 W22G29    29.68R WCI  20
PLATTEVILLE    CLOUDY    33  32  94 SW9       29.66S WCI  26
$$

WIZ056-057-062-063-064-067-068-080600-
SOUTH CENTRAL WISCONSIN

CITY           SKY/WX    TMP DP  RH WIND       PRES   REMARKS
REEDSBURG      CLOUDY    34  30  85 SW9       29.60F WCI  27
BARABOO/DELLS  CLOUDY    34  28  80 SW8       29.60F WCI  27
LONE ROCK      CLOUDY    35  30  82 W9        29.64F WCI  28
MINERAL POINT  FLURRIES  34  32  93 SW8       29.63F WCI  27
MADISON        CLOUDY    33  28  81 SW6       29.62F WCI  28
MIDDLETON      CLOUDY    35  29  79 SW8       29.63F WCI  29
WATERTOWN      CLOUDY    32  31  99 SW7       29.62F WCI  25
MONROE         CLOUDY    32  30  93 SW14      29.64F WCI  22
JANESVILLE     CLEAR     32  30  93 SW6       29.65F WCI  26
$$

WIZ051-052-058>065-066-070>072-080600-
SOUTHEAST WISCONSIN

CITY           SKY/WX    TMP DP  RH WIND       PRES   REMARKS
MILWAUKEE      CLEAR     34  27  75 W8        29.64F WCI  27
WAUKESHA       CLEAR     32  27  80 SW8       29.64F WCI  25
MILWAUKEE/TIMM CLEAR     32  27  80 SW9       29.64F WCI  24
RACINE         CLEAR     33  26  75 W8        29.66F WCI  26
BURLINGTON     CLEAR     31  26  84 W7        29.65F WCI  24
KENOSHA        CLEAR     32  27  81 W10       29.66F WCI  24
FOND DU LAC    CLOUDY    33  26  75 SW9       29.60F WCI  25
SHEBOYGAN      PTCLDY    31  24  75 SW6       29.61F WCI  25
WEST BEND      PTCLDY    32  28  86 CALM      29.62S
JUNEAU         CLOUDY    32  28  84 SW12      29.62F WCI  23
$$

LSZ147-162-080600-
LAKE SUPERIOR

STATION/POSITION TIME  TEMP    WIND        PRES    WAVE
                       AIR SEA DIR/SP/G            HT/PER
                 (UTC) (F)     (DEG/KT/KT) (MB)    (FT/S)
DEVILS ISLAND    0500   26      30/ 22/ 26 1003.6R
PORT WING        0400   29     310/ 14/ 18 1003.4R
SAXON HARBOR     0400   31                 1000.3S
$$

LMZ867-665-643>646-080600-
LAKE MICHIGAN

STATION/POSITION TIME  TEMP    WIND        PRES    WAVE
                       AIR SEA DIR/SP/G            HT/PER
                 (UTC) (F)     (DEG/KT/KT) (MB)    (FT/S)
CHAMBERS ISLAND  0400   36     190/  6/  9 1002.0F
NORTHPORT PIER   0400   36      CALM  /  4 1001.7F
KEWAUNEE LAKESHO 0500   36     250/  5/  7 1001.5S
SHEBOYGAN LAKESH 0500   34     220/  7/  7 1003.7F
PORT WASHINGTON  0400   35     250/  6/ 11 1004.7
MILWAUKEE LAKESH 0410   36     250/ 11/ 14   N/A
KENOSHA   LAKESH 0500   35     250/ 11/ 16 1004.4F
$$

TC  - TEMPERATURE IN CELSIUS
VSB - VISIBILITY IN STATUTE MILES
WCI - WIND CHILL INDEX
HX  - HEAT INDEX





USA.gov is the U.S. government's official web portal to all federal, state and local government web resources and services.